[[{"header":{"parameterUnit":"m.s-1","parameterCategory":1,"la1":30.2991,"la2":30.254,"lo1":-89.0895,"lo2":-89.0444,"dy":0.0017,"dx":0.0017,"nx":28,"ny":28,"refTime":"2025-06-09T09:00:00:Z","depth":0,"parameterNumber":2,"parameterNumberName":"U-component_of_WINDS"},"data":[0,0,0,0,0,0,0,0,0,0,0,0,0,0,0,0,0,0,0,0,0,0,0,0,0,0,0,0,0,0,0,0,0,0,0,0,0,0,0,0,0,0,0,0,0,0,0,0,0,0,0,0,0,0,0,0,0,0,-0.9564,-0.9563,0,-0.9476,-0.9475,-0.9474,-0.9379,-0.9378,-0.9376,-0.9375,-0.9286,-0.9285,-0.9284,0,0,0,0,0,0,0,0,0,0,0,0,0,-0.9649,-0.9648,-0.9564,-0.9563,-0.9562,-0.9476,-0.9475,-0.9474,-0.9379,-0.9378,-0.9376,-0.9375,-0.9286,-0.9285,-0.9284,0,0,0,0,0,0,0,0,0,0,0,0,0,-0.9592,-0.9647,-0.9564,-0.9504,-0.9498,-0.9477,-0.9475,-0.9474,-0.938,-0.9378,-0.9376,-0.9374,-0.9287,-0.9285,-0.9284,-0.9314,0,0,-0.9278,-0.9278,0,0,0,0,0,0,0,0,-0.9595,-0.9589,-0.9514,-0.9508,-0.9501,-0.9436,-0.9472,-0.942,-0.938,-0.9425,-0.9375,-0.9373,-0.9338,-0.9332,-0.932,-0.931,-0.9306,-0.9278,-0.9277,-0.9277,-0.9276,0,0,0,0,0,0,0,-0.9599,-0.9592,-0.9529,-0.9513,-0.9505,-0.9482,-0.9471,-0.9462,-0.9394,-0.9421,-0.9414,-0.9404,-0.9334,-0.9322,-0.9317,-0.9305,-0.9278,-0.9277,-0.9276,-0.9275,-0.9314,-0.9316,0,0,0,0,0,0,-0.9612,-0.9596,-0.9532,-0.9526,-0.9544,-0.9482,-0.947,-0.9459,-0.9394,-0.9382,-0.9406,-0.94,-0.9326,-0.9319,-0.9314,-0.9344,-0.9277,-0.9275,-0.9274,-0.9312,-0.9314,-0.9317,0,0,0,0,0,0,-0.9614,-0.9607,-0.9535,-0.9559,-0.9548,-0.9482,-0.9471,-0.9459,-0.9446,-0.9383,-0.937,-0.9406,-0.9324,-0.9316,-0.9314,-0.9339,-0.9274,-0.9273,-0.931,-0.9313,-0.9316,-0.9406,0,0,0,0,0,0,-0.9617,-0.9609,-0.962,-0.956,-0.9547,-0.9538,-0.9473,-0.9458,-0.9444,-0.9435,-0.9379,-0.9368,-0.9321,-0.9317,-0.9313,-0.9336,-0.9272,-0.9307,-0.9311,-0.9315,-0.94,-0.9411,-0.9421,0,0,0,0,0,-0.9621,-0.9649,-0.9621,-0.9614,-0.956,-0.954,-0.9532,-0.9478,-0.9446,-0.9457,-0.9415,-0.937,-0.9338,-0.9318,-0.9312,-0.9335,-0.9305,-0.931,-0.9314,-0.9395,-0.9409,-0.9421,0,0,0,0,0,0,-0.9714,-0.964,-0.9608,-0.9618,-0.9586,-0.9524,-0.9535,-0.9494,-0.947,-0.9463,-0.9397,-0.9385,-0.9391,-0.9363,-0.9342,-0.936,-0.9315,-0.9318,-0.9379,-0.9391,-0.9401,-0.9408,-0.927,0,0,0,0,0,-0.9736,-0.9726,-0.9662,-0.9677,-0.9662,-0.9602,-0.9591,-0.9552,-0.9516,-0.9502,-0.946,-0.9427,-0.9409,-0.9399,-0.9379,-0.9396,-0.9382,-0.9409,-0.9419,-0.9428,-0.9432,-0.9437,-0.9448,-0.9332,-0.9332,-0.9331,0,0,-0.9781,-0.9739,-0.9737,-0.9695,-0.9665,-0.9655,-0.9591,-0.9584,-0.9576,-0.95,-0.9496,-0.9465,-0.9423,-0.9431,-0.9432,-0.9407,-0.9461,-0.9434,-0.9441,-0.944,-0.9443,-0.9454,-0.9464,-0.9335,-0.9334,-0.9334,0,0,-0.9858,-0.9826,-0.9834,-0.9805,-0.9761,-0.972,-0.9723,-0.9666,-0.9642,-0.9637,-0.9579,-0.9569,-0.954,-0.9512,-0.9494,-0.956,-0.9516,-0.9555,-0.9609,-0.9616,-0.9625,-0.9633,-0.9655,-0.9664,-0.9559,-0.9559,-0.9559,0,-0.9919,-0.9903,-0.9844,-0.984,-0.9822,-0.9753,-0.976,-0.9736,-0.9687,-0.9677,-0.965,-0.9611,-0.9578,-0.9578,-0.9593,-0.9582,-0.9581,-0.9561,-0.9628,-0.9635,-0.9642,-0.9662,-0.9671,-0.9564,-0.9564,-0.9563,-0.9563,0,-0.998,-0.9969,-0.9981,-0.9936,-0.992,-0.9922,-0.9863,-0.9854,-0.9816,-0.9778,-0.9773,-0.9731,-0.97,-0.9697,-0.9661,-0.9691,-0.9677,-0.9641,-0.9593,-0.9659,-0.9677,-0.9684,-0.9571,-0.9569,-0.9568,-0.9567,0,0,-1.0113,-1.0034,-1.0039,-1.0017,-0.9963,-0.9953,-0.9952,-0.9922,-0.9915,-0.9884,-0.988,-0.9857,-0.9822,-0.9802,-0.9761,-0.9767,-0.982,-0.9729,-0.9727,-0.9746,-0.985,-0.9877,-0.9887,-0.9791,-0.9792,-0.9793,-0.9853,0,-1.0179,-1.0172,-1.0119,-1.0127,-1.0116,-1.0049,-1.0048,-1.0014,-0.9979,-0.9964,-0.9925,-0.9909,-0.9864,-0.9852,-0.9854,-0.9813,-0.9839,-0.9808,-0.9786,-0.9786,-0.9798,-0.9897,-0.9926,-0.9984,-0.986,-0.9861,-0.9862,0,-1.0256,-1.0229,-1.0236,-1.018,-1.0173,-1.0173,-1.014,-1.0128,-1.0088,-1.0061,-1.0039,-0.9992,-0.9986,-0.9943,-0.9933,-0.9913,-0.9901,-0.9879,-0.988,-0.9875,-0.9828,-0.9894,-1.0001,-1.001,-0.9872,-0.9871,-0.9871,0,-1.0351,-1.0316,-1.0315,-1.0299,-1.0234,-1.0235,-1.0208,-1.0166,-1.0151,-1.0123,-1.0113,-1.0084,-1.0069,-1.0048,-0.9995,-0.9968,-0.9991,-0.9943,-0.9969,-0.997,-0.9976,-0.9976,-1.0082,-0.997,-0.997,-0.997,-0.997,0,-1.043,-1.0437,-1.0357,-1.0357,-1.0362,-1.03,-1.0307,-1.0274,-1.0237,-1.0228,-1.017,-1.0163,-1.0094,-1.0079,-1.0038,-1.0036,-1.0029,-1.0008,-0.9996,-1.0012,-1.0015,-1.0003,-0.9997,-0.9972,-0.9972,-0.9971,-0.9971,0,-1.0537,-1.0484,-1.0479,-1.0418,-1.0402,-1.0409,-1.0356,-1.0353,-1.0314,-1.0304,-1.0298,-1.0237,-1.0216,-1.0161,-1.0127,-1.0099,-1.0108,-1.0088,-1.0122,-1.0114,-1.0142,-1.014,-1.0244,-1.0254,-1.0137,-1.0138,-1.0139,0,-1.0591,-1.0594,-1.0533,-1.0523,-1.0498,-1.0483,-1.0467,-1.0407,-1.0392,-1.0347,-1.0349,-1.0324,-1.03,-1.0271,-1.0223,-1.0196,-1.0174,-1.0212,-1.017,-1.0185,-1.0173,-1.0173,-1.0173,-1.0221,-1.0223,-1.0224,-1.0225,0,-1.0691,-1.0664,-1.0644,-1.0614,-1.0596,-1.057,-1.054,-1.0535,-1.0467,-1.0454,-1.0432,-1.0414,-1.0378,-1.0354,-1.0319,-1.0291,-1.0247,-1.0239,-1.0243,-1.0259,-1.0278,-1.0267,-1.0146,-1.0237,-1.0236,-1.0235,-1.0234,-1.0234,-1.0772,-1.0771,-1.0728,-1.0707,-1.0678,-1.0651,-1.0644,-1.0604,-1.0585,-1.0551,-1.0516,-1.0498,-1.0457,-1.0406,-1.0381,-1.0365,-1.0342,-1.0349,-1.035,-1.0352,-1.0359,-1.0281,-1.0359,-1.0358,-1.0358,-1.0358,-1.0357,0,-1.0868,-1.0837,-1.0818,-1.0777,-1.0761,-1.072,-1.0685,-1.0673,-1.0658,-1.0623,-1.0601,-1.0575,-1.0551,-1.0501,-1.0472,-1.0469,-1.0448,-1.0464,-1.0463,-1.0457,-1.0382,-1.0381,-1.0481,-1.0481,-1.0481,-1.0481,-1.0481,-1.0481,-1.0916,-1.0913,-1.0881,-1.0862,-1.083,-1.0812,-1.0795,-1.0769,-1.0741,-1.0715,-1.0695,-1.0662,-1.0621,-1.0588,-1.0564,-1.055,-1.0541,-1.0563,-1.0543,-1.0474,-1.0462,-1.0451,-1.0449,-1.0562,-1.0563,-1.0618,-1.0619,-1.0619]},{"header":{"parameterUnit":"m.s-1","parameterCategory":1,"la1":30.2991,"la2":30.254,"lo1":-89.0895,"lo2":-89.0444,"dy":0.0017,"dx":0.0017,"nx":28,"ny":28,"refTime":"2025-06-09T09:00:00:Z","depth":0,"parameterNumber":3,"parameterNumberName":"V-component_of_WINDS"},"data":[0,0,0,0,0,0,0,0,0,0,0,0,0,0,0,0,0,0,0,0,0,0,0,0,0,0,0,0,0,0,0,0,0,0,0,0,0,0,0,0,0,0,0,0,0,0,0,0,0,0,0,0,0,0,0,0,0,0,0.3524,0.3524,0,0.356,0.356,0.356,0.3555,0.3554,0.3554,0.3553,0.3589,0.359,0.3592,0,0,0,0,0,0,0,0,0,0,0,0,0,0.3448,0.3449,0.3524,0.3524,0.3525,0.3559,0.356,0.356,0.3555,0.3554,0.3553,0.3553,0.3588,0.359,0.3592,0,0,0,0,0,0,0,0,0,0,0,0,0,0.3482,0.345,0.3524,0.3526,0.3527,0.3559,0.356,0.3561,0.3555,0.3554,0.3553,0.3552,0.3588,0.359,0.3592,0.3625,0,0,0.3599,0.36,0,0,0,0,0,0,0,0,0.348,0.3485,0.3525,0.3526,0.3527,0.3552,0.3546,0.3582,0.3555,0.3544,0.3553,0.3552,0.3577,0.358,0.3589,0.3626,0.3628,0.36,0.3601,0.3602,0.3603,0,0,0,0,0,0,0,0.3478,0.3483,0.3538,0.3526,0.3527,0.3524,0.3528,0.3553,0.3565,0.3545,0.3545,0.3549,0.3577,0.3587,0.359,0.3628,0.3599,0.3602,0.3603,0.3604,0.3692,0.3692,0,0,0,0,0,0,0.3475,0.3481,0.3537,0.3539,0.3501,0.3527,0.3531,0.3545,0.3565,0.3567,0.355,0.3549,0.3583,0.3587,0.3591,0.3629,0.3602,0.3604,0.3605,0.3691,0.3692,0.3693,0,0,0,0,0,0,0.3473,0.348,0.3535,0.351,0.3517,0.3529,0.3544,0.3546,0.3555,0.3569,0.3571,0.3557,0.3583,0.3588,0.3616,0.363,0.3605,0.3607,0.3689,0.3691,0.3692,0.3705,0,0,0,0,0,0,0.3471,0.3479,0.3493,0.351,0.3518,0.356,0.3545,0.3547,0.3559,0.3558,0.3576,0.3578,0.3583,0.3613,0.3618,0.3633,0.3609,0.3688,0.369,0.3692,0.3704,0.3707,0.371,0,0,0,0,0,0.3468,0.3495,0.3493,0.35,0.3535,0.3561,0.3566,0.357,0.3561,0.3573,0.3581,0.3578,0.3628,0.3615,0.3622,0.3637,0.3687,0.369,0.3692,0.3702,0.3706,0.371,0,0,0,0,0,0,0.3479,0.3498,0.3496,0.3529,0.3543,0.356,0.3577,0.3574,0.3592,0.359,0.3594,0.3598,0.3626,0.3635,0.3621,0.3668,0.3656,0.366,0.3662,0.3666,0.3669,0.3666,0.3611,0,0,0,0,0,0.3485,0.3505,0.352,0.3548,0.3555,0.3565,0.3576,0.3578,0.3593,0.3599,0.361,0.3624,0.3642,0.3655,0.3673,0.3705,0.3708,0.3718,0.3721,0.3724,0.3727,0.3742,0.3747,0.37,0.37,0.37,0,0,0.3498,0.3511,0.3524,0.3551,0.3562,0.3582,0.357,0.3592,0.3606,0.3602,0.3629,0.3637,0.3653,0.3683,0.3696,0.3691,0.374,0.3727,0.3729,0.373,0.3745,0.3749,0.3753,0.3701,0.3701,0.3701,0,0,0.3532,0.3544,0.3568,0.3579,0.3596,0.3602,0.3607,0.3624,0.3629,0.3656,0.3653,0.3669,0.3702,0.3713,0.3723,0.3758,0.3755,0.3764,0.378,0.3795,0.3799,0.3802,0.3813,0.3817,0.3767,0.3767,0.3767,0,0.3546,0.3576,0.358,0.3602,0.3613,0.361,0.3633,0.3644,0.3666,0.3673,0.3667,0.3706,0.3717,0.3748,0.3756,0.3765,0.377,0.3762,0.3798,0.3801,0.3804,0.3815,0.3819,0.3768,0.3767,0.3767,0.3767,0,0.3592,0.3613,0.363,0.365,0.3663,0.3686,0.3692,0.3705,0.3705,0.3711,0.3737,0.3749,0.3769,0.3776,0.3777,0.3807,0.3803,0.3797,0.3785,0.381,0.382,0.3824,0.3769,0.3769,0.3768,0.3768,0,0,0.3635,0.3656,0.3662,0.367,0.3688,0.3704,0.3725,0.3744,0.3754,0.3769,0.3786,0.3812,0.3806,0.3817,0.3819,0.3832,0.3857,0.3824,0.3825,0.3829,0.3889,0.3893,0.3898,0.3855,0.3856,0.3857,0.3887,0,0.3669,0.3707,0.371,0.3744,0.3762,0.3758,0.3776,0.3789,0.3794,0.381,0.3816,0.3834,0.3825,0.3832,0.3845,0.3851,0.3869,0.3849,0.387,0.3871,0.3866,0.3903,0.3908,0.3936,0.3891,0.3892,0.3892,0,0.3715,0.373,0.3765,0.3778,0.3786,0.3803,0.3819,0.3834,0.3847,0.385,0.3861,0.3861,0.3881,0.3868,0.3896,0.3882,0.389,0.3895,0.3896,0.3898,0.3883,0.3905,0.3945,0.3949,0.3899,0.3898,0.3898,0,0.374,0.377,0.3794,0.3802,0.3818,0.3829,0.3837,0.3849,0.3859,0.3873,0.388,0.3896,0.3905,0.3917,0.392,0.3911,0.3947,0.3935,0.3949,0.3949,0.3957,0.3956,0.3998,0.3964,0.3964,0.3964,0.3963,0,0.3778,0.38,0.3806,0.3821,0.3844,0.3847,0.3869,0.3876,0.3886,0.3902,0.3899,0.3914,0.3918,0.3932,0.3935,0.3956,0.396,0.3963,0.3963,0.3962,0.3962,0.3968,0.3965,0.3965,0.3964,0.3964,0.3964,0,0.3811,0.3816,0.3842,0.3855,0.3858,0.3875,0.3885,0.3899,0.3904,0.3923,0.3927,0.3935,0.3951,0.3956,0.3976,0.3978,0.4003,0.4002,0.3998,0.3998,0.4012,0.401,0.4059,0.4064,0.4027,0.4027,0.4027,0,0.3835,0.3851,0.3865,0.3875,0.3882,0.3898,0.3909,0.3911,0.3922,0.3937,0.3948,0.3965,0.3978,0.4005,0.4012,0.4027,0.4025,0.4041,0.4028,0.4026,0.4024,0.4023,0.4024,0.4044,0.4044,0.4044,0.4045,0,0.3875,0.3876,0.3891,0.3907,0.3919,0.3931,0.3943,0.3951,0.3955,0.3967,0.3984,0.3994,0.4014,0.403,0.4045,0.4051,0.4048,0.4049,0.4053,0.4052,0.4049,0.405,0.4004,0.4048,0.4047,0.4047,0.4047,0.4047,0.3903,0.3917,0.3928,0.3944,0.3953,0.3963,0.3976,0.3982,0.3996,0.4013,0.4013,0.4031,0.4042,0.4061,0.4068,0.4082,0.4077,0.4083,0.4084,0.4086,0.4086,0.4047,0.4085,0.4085,0.4085,0.4084,0.4084,0,0.3943,0.3949,0.3964,0.398,0.3992,0.3988,0.4,0.401,0.4026,0.4036,0.4049,0.4068,0.4083,0.409,0.4104,0.4113,0.4112,0.4117,0.4116,0.4117,0.409,0.4085,0.4118,0.4118,0.4118,0.4118,0.4118,0.4118,0.3965,0.3987,0.3989,0.4014,0.4021,0.4038,0.4045,0.4054,0.4062,0.4083,0.4095,0.4099,0.4108,0.4123,0.4136,0.4137,0.4142,0.4147,0.4148,0.4123,0.4119,0.4116,0.4111,0.4149,0.4149,0.4174,0.4174,0.4174]}]]